Flag for Canada Weather past 2 weeks in Stonewall, Manitoba, Canada

Now
61 °F

Overcast.


Feels Like: 61 °F
Forecast: 60 / 72 °F
Wind: 21 mph from West

Location: Winnipeg Int. Airportman.

Current Time: Jul 29, 2015 at 8:51:25 AM

Latest Report: Jul 29, 2015 at 8:00 AM


Visibility: 10 mi

Pressure: 29.49 "Hg

Humidity: 94%

Dew point: 59 °F

Location of StonewallLocation

Historic Weather in Stonewall — Graph

°F

Stonewall temperature yesterday

Maximum temperature yesterday: 79 °F (at 12:00 AM)
Minimum temperature yesterday: 64 °F (at 11:00 PM)
Average temperature yesterday: 74 °F

Past Weeks' High & Low Weather Summary

 TemperatureHumidityPressure
High88 °F (Jul 26, 3:00 PM)100% (Jul 15, 3:00 AM)29.98 "Hg (Jul 15, 3:00 AM)
Low48 °F (Jul 21, 5:00 AM)35% (Jul 25, 3:00 PM)29.28 "Hg (Jul 29, 12:00 AM)
Average70 °F78%29.76 "Hg
* Reported Jul 14 7:00 AM — Jul 29 7:00 AM, Stonewall, Weather by CustomWeather, © 2015

Note: Actual official high and low records may vary slightly from our data, if they occured in-between our weather recording intervals... More about our weather records

Advertising

Stonewall weather history for previous 24 hours

 ConditionsComfort  
Time TempWeatherWind HumidityBarometerVisibility
7:00 AM
Wed, Jul 29
61 °FDrizzle. Fog.22 mph94%29.46 "Hg3 mi
6:00 AM61 °FDrizzle. Fog.22 mph100%29.41 "Hg3 mi
5:00 AM61 °FPassing clouds.17 mph94%29.38 "Hg15 mi
4:00 AM63 °FSprinkles. Passing clouds.17 mph94%29.34 "Hg15 mi
3:00 AM61 °FPassing clouds.15 mph94%29.32 "Hg15 mi
2:00 AM61 °FPassing clouds.21 mph94%29.30 "Hg15 mi
1:00 AM61 °FSprinkles. Passing clouds.17 mph94%29.28 "Hg15 mi
12:00 AM59 °FSprinkles. Overcast.16 mph94%29.28 "Hg15 mi
11:00 PM
Tue, Jul 28
64 °FSprinkles. Mostly cloudy.26 mph68%29.32 "Hg15 mi
10:00 PM68 °FPartly sunny.21 mph60%29.35 "Hg15 mi
9:00 PM68 °FPartly sunny.16 mph60%29.39 "Hg15 mi
8:00 PM70 °FBroken clouds.18 mph64%29.41 "Hg15 mi
7:00 PM70 °FPartly sunny.20 mph69%29.45 "Hg15 mi
6:00 PM72 °FPartly sunny.22 mph61%29.47 "Hg15 mi
5:00 PM73 °FPartly sunny.20 mph57%29.48 "Hg15 mi
4:00 PM73 °FScattered clouds.26 mph61%29.48 "Hg15 mi
3:00 PM77 °FPartly sunny.21 mph61%29.47 "Hg15 mi
2:00 PM75 °FScattered clouds.21 mph69%29.47 "Hg15 mi
1:00 PM75 °FBroken clouds.20 mph74%29.48 "Hg15 mi
12:00 PM77 °FPartly sunny.20 mph79%29.48 "Hg15 mi
11:00 AM77 °FBroken clouds.15 mph83%29.50 "Hg15 mi
10:00 AM73 °FMostly cloudy.17 mph94%29.52 "Hg15 mi
9:00 AM73 °FCloudy.16 mph94%29.52 "Hg15 mi
8:00 AM72 °FSprinkles. Cloudy.16 mph94%29.52 "Hg15 mi
Weather by CustomWeather, © 2015

See weather overviewHow to use our weather pages